Date,TemperatureHighF,TemperatureAvgF,TemperatureLowF,DewpointHighF,DewpointAvgF,DewpointLowF,HumidityHigh,HumidityAvg,HumidityLow,PressureMaxIn,PressureMinIn,WindSpeedMaxMPH,WindSpeedAvgMPH,GustSpeedMaxMPH,PrecipitationSumIn
2013-4-1,48.0,42.8,38.0,41.0,39.0,37.0,99,88,71,0.00,40.00,6,4,12,0.77
2013-4-2,56.0,41.5,31.0,42.0,37.6,31.0,100,88,59,0.00,40.00,8,4,13,0.01
2013-4-3,60.0,43.0,30.0,44.0,37.5,30.0,100,84,48,0.00,40.00,7,4,11,0.01
2013-4-4,56.0,48.4,43.0,43.0,38.6,34.0,85,69,54,0.00,40.00,16,8,32,0.03
2013-4-5,52.0,43.0,38.0,38.0,36.0,33.0,96,78,51,0.00,40.00,13,9,32,0.07
2013-4-6,49.0,40.9,36.0,38.0,36.0,33.0,96,83,57,0.00,40.00,17,9,30,0.21
2013-4-7,42.0,37.8,30.0,37.0,33.0,25.0,96,83,58,0.00,40.00,19,11,36,0.25
2013-4-8,44.0,34.8,26.0,28.0,23.9,19.0,92,65,51,0.00,40.00,19,11,31,0.03
2013-4-9,59.0,40.8,25.0,36.0,28.1,22.0,91,65,27,0.00,40.00,15,6,24,0.03
2013-4-10,56.0,44.6,34.0,44.0,37.1,29.0,96,76,60,0.00,40.00,15,7,27,0.00
2013-4-11,57.0,42.2,25.0,33.0,26.1,16.0,95,60,21,0.00,40.00,10,5,19,0.00
2013-4-12,62.0,44.7,27.0,36.0,27.1,15.0,93,57,19,0.00,40.00,15,8,25,0.00
2013-4-13,44.0,39.8,30.0,37.0,24.0,19.0,77,54,38,0.00,40.00,16,11,33,0.00
2013-4-14,42.0,31.9,21.0,23.0,19.2,15.0,88,62,36,0.00,40.00,12,6,21,0.00
2013-4-15,37.0,31.2,26.0,29.0,24.2,19.0,93,76,48,0.00,40.00,12,6,23,0.01
2013-4-16,41.0,32.0,25.0,34.0,24.3,20.0,84,73,55,0.00,40.00,17,6,29,0.07
2013-4-17,51.0,36.5,24.0,24.0,20.8,12.0,91,58,22,0.00,40.00,11,7,20,0.01
2013-4-18,60.0,43.2,27.0,38.0,29.2,22.0,82,60,36,0.00,40.00,10,5,18,0.00
2013-4-19,54.0,45.2,38.0,39.0,35.6,30.0,91,70,46,0.00,40.00,19,10,36,0.00
2013-4-20,61.0,44.4,27.0,36.0,30.1,19.0,97,63,25,0.00,40.00,14,6,21,0.00
2013-4-21,61.0,46.3,30.0,38.0,32.9,28.0,96,65,32,0.00,40.00,16,8,29,0.00
2013-4-22,58.0,44.6,31.0,37.0,23.7,9.0,96,53,15,0.00,40.00,10,7,21,0.00
2013-4-23,65.0,45.9,25.0,18.0,14.4,4.0,67,33,9,0.00,40.00,11,7,26,0.00
2013-4-24,68.0,49.3,30.0,18.0,15.0,5.0,51,28,8,0.00,40.00,8,6,20,0.00
2013-4-25,72.0,51.4,29.0,40.0,24.8,16.0,63,39,14,0.00,40.00,14,7,25,0.00
2013-4-26,75.0,56.4,34.0,40.0,32.0,25.0,89,46,17,0.00,40.00,9,6,19,0.00
2013-4-27,73.0,56.1,36.0,37.0,29.8,23.0,80,43,16,0.00,40.00,15,7,22,0.00
2013-4-28,65.0,54.5,42.0,33.0,28.8,21.0,59,38,27,0.00,40.00,14,6,21,0.00
2013-4-29,58.0,48.5,39.0,42.0,34.8,27.0,81,61,33,0.00,40.00,14,8,23,0.00
2013-4-30,57.0,40.6,27.0,29.0,17.0,-3.0,86,47,9,0.00,40.00,15,6,27,0.00